Regional Weather Roundup
Issued by NWS State College, PA

Home | Current Version | Previous Version | Graphics & Text | Print | Product List | Glossary Off
Versions: 1 2 3 4 5 6 7 8 9 10 11 12 13 14 15 16 17 18 19 20 21 22 23 24 25 26 27 28 29 30 31 32 33 34 35 36 37 38 39 40 41 42 43 44 45 46 47 48 49 50

000
ASUS41 KCTP 060803
RWRCTP

REGIONAL WEATHER ROUNDUP
NATIONAL WEATHER SERVICE STATE COLLEGE PA
400 AM EDT MON JUL 06 2015

Note: "fair" indicates few or no clouds below 12,000 feet with no
significant weather and/or obstructions to visibility.

* = STATION THAT DOES NOT REPORT PRECIPITATION /E.G. RAIN...SNOW...ETC/
    THUNDER OR FOG.

PAZ002>004-007>009-013>016-020>023-029>032-060900-
WESTERN PENNSYLVANIA

CITY           SKY/WX    TMP DP  RH WIND       PRES   REMARKS
ERIE           PTCLDY    68  58  70 S9        30.06F
MEADVILLE      MOCLDY    66  59  78 E3        30.10F
FRANKLIN*      MOCLDY    63  55  77 NE5       30.12S
NEW CASTLE     FAIR      66  64  93 CALM      30.08S
BEAVER COUNTY  NOT AVBL
BUTLER*        CLOUDY    70  64  83 SE5       30.09S
PITTSBURGH INT CLOUDY    73  66  78 SE7       30.06S
PITTSBURGH     LGT RAIN  70  64  81 SE5       30.06F
INDIANA*       PTCLDY    68  66  94 CALM      30.13F
LATROBE        NOT AVBL
WASHINGTON CO* NOT AVBL
$$

PAZ004>006-010>012-017>019-024>028-033>037-041-042-045-046-049>053-060900-
CENTRAL PENNSYLVANIA

CITY           SKY/WX    TMP DP  RH WIND       PRES   REMARKS
BRADFORD       MOCLDY    57  55  93 CALM      30.16S
DUBOIS         CLOUDY    66  61  84 E8        30.12F
CLEARFIELD     CLOUDY    62  60  93 NE7       30.14F
JOHNSTOWN      CLOUDY    67  64  90 SE6       30.14F
ALTOONA        LGT RAIN  68  65  90 CALM      30.14F
STATE COLLEGE  CLOUDY    66  62  89 NE3       30.14S
WILLIAMSPORT   CLOUDY    64  61  90 CALM      30.13S
SELINSGROVE    MOCLDY    65  63  93 CALM      30.14S FOG
FT INDIANTOWN  MOCLDY    67  65  94 NE2       30.14S
CAPITAL CITY   CLOUDY    71  66  84 E3        30.12S
HARRISBURG     CLOUDY    70  67  90 CALM      30.12S
YORK           CLOUDY    70  68  93 CALM      30.12F
$$

PAZ038>040-043-044-047-048-054-055-060>062-067>071-060900-
EASTERN PENNSYLVANIA

CITY           SKY/WX    TMP DP  RH WIND       PRES   REMARKS
SCRANTON       MOCLDY    63  57  81 E6        30.16S
MOUNT POCONO   MOCLDY    58  55  90 CALM      30.20S FOG
ALLENTOWN      MOCLDY    65  62  90 NE5       30.15S
QUAKERTOWN*    PTSUNNY   64  64 100 CALM      30.16S
READING        MOCLDY    68  65  90 CALM      30.13F
LANCASTER      MOCLDY    67  66  97 E3        30.13F
COATESVILLE    PTSUNNY   68  68 100 SE3       30.16S
POTTSTOWN      MOCLDY    68  67  96 CALM      30.16S
BLUE BELL        N/A     68  68 100 CALM      30.14F
DOYLESTOWN     MOCLDY    65  65 100 CALM      30.15S
WILLOW GROVE   NOT AVBL
NORTH PHILA    MOCLDY    72  66  81 SE3       30.16S
PHILADELPHIA   CLOUDY    73  68  84 E5        30.15S
$$



USA.gov is the U.S. government's official web portal to all federal, state and local government web resources and services.